Location: Unspecified
(0.0000°N, 0.0000°E)
Time: 09:06:40
(UTC+00:00)

Vanguard 2 - Pass Details

Date: 24 October 2021
Orbit: 554 x 2936 km, 32.9° (Epoch: 06 December)

Event Time Altitude Azimuth Distance (km) Brightness Sun altitude
Rises 23:18:54 0° 252° (WSW) 6,771 12.5 -76.4°
Reaches altitude 10° 23:23:52 10° 259° (WSW) 5,761 12.0 -76.9°
Enters shadow 23:25:05 13° 260° (W) 5,519 11.8 -77.0°
Maximum altitude 23:39:51 42° 323° (NW) 3,312 - -77.9°
Drops below altitude 10° 23:51:52 10° 31° (NNE) 4,363 - -77.7°
Sets 23:55:06 0° 38° (NE) 5,053 - -77.6°
